Tracking 19827 objects as of 23-Aug-2019
HD Live streaming from Space Station
objects crossing your sky now

BLOCK DM-SL R/B

Track BLOCK DM-SL R/B now!


NORAD ID: 39774
Int'l Code: 2014-030B
Perigee: 399.4 km
Apogee: 35,477.3 km
Inclination: 0.6 °
Period: 628.7 minutes
Semi major axis: 24309 km
RCS: Unknown
Launch date: May 26, 2014
Source: Sea Launch (SEAL)
Launch site: SEA LAUNCH (SEAL)

Note: This is a ROCKET BODY
aabbcc
Your satellite tracking list
Your tracking list is empty




NASA's NSSDC Master Catalog

Two Line Element Set (TLE):
1 39774U 14030B   19233.44021076 -.00000125 +00000-0 -15074-3 0  9990
2 39774 000.5567 047.6498 7214887 221.8545 015.5217 02.29056784043738
Source of the keplerian elements: AFSPC